| time (UTC) | temp F | wind direction | speed MPH | gust MPH | rain 1hr in | rain 24hr in | rain mn in | humidity % | barometer mb |
| 20260831063750 | 59 | 262 | 4.0 | 11.0 | 0.00 | 0.18 | 0.18 | 85 | 1020.0 |
| 20260831063549 | 59 | 222 | 3.0 | 11.0 | 0.00 | 0.18 | 0.18 | 87 | 1020.1 |
| 20260831063344 | 59 | 235 | 3.0 | 11.0 | 0.00 | 0.18 | 0.18 | 86 | 1020.1 |
| 20260831063140 | 59 | 250 | 2.0 | 9.0 | 0.00 | 0.18 | 0.18 | 88 | 1020.1 |
| 20260831062932 | 59 | 270 | 2.0 | 9.0 | 0.00 | 0.18 | 0.18 | 88 | 1020.0 |
| 20260831062731 | 59 | 269 | 2.0 | 8.0 | 0.00 | 0.18 | 0.18 | 88 | 1020.0 |
| 20260831062524 | 59 | 238 | 2.0 | 9.0 | 0.00 | 0.18 | 0.18 | 89 | 1020.0 |
| 20260831062004 | 59 | 242 | 2.0 | 9.0 | 0.00 | 0.18 | 0.18 | 90 | 1020.0 |
| 20260831061757 | 59 | 238 | 2.0 | 9.0 | 0.00 | 0.18 | 0.18 | 90 | 1019.9 |
| 20260831061548 | 59 | 231 | 2.0 | 9.0 | 0.00 | 0.18 | 0.18 | 90 | 1020.0 |
| 20260831061348 | 59 | 229 | 3.0 | 9.0 | 0.00 | 0.18 | 0.18 | 90 | 1019.9 |
| 20260831060503 | 59 | 222 | 3.0 | 8.0 | 0.00 | 0.18 | 0.18 | 91 | 1019.8 |
| 20260831060256 | 59 | 234 | 2.0 | 8.0 | 0.00 | 0.18 | 0.18 | 91 | 1019.8 |
| 20260831060057 | 59 | 235 | 2.0 | 7.0 | 0.00 | 0.18 | 0.18 | 91 | 1019.9 |
| 20260831055536 | 59 | 233 | 1.0 | 7.0 | 0.00 | 0.18 | 0.18 | 92 | 1019.8 |
| 20260831055335 | 59 | 260 | 1.0 | 7.0 | 0.00 | 0.18 | 0.18 | 93 | 1019.8 |
| 20260831055132 | 59 | 234 | 2.0 | 8.0 | 0.00 | 0.18 | 0.18 | 93 | 1019.8 |
| 20260831054926 | 59 | 243 | 2.0 | 8.0 | 0.00 | 0.18 | 0.18 | 93 | 1019.7 |
| 20260831054718 | 59 | 231 | 2.0 | 8.0 | 0.00 | 0.18 | 0.18 | 94 | 1019.8 |
| 20260831054517 | 59 | 257 | 2.0 | 8.0 | 0.00 | 0.18 | 0.18 | 94 | 1019.8 |
| 20260831054316 | 59 | 214 | 2.0 | 8.0 | 0.00 | 0.18 | 0.18 | 95 | 1019.7 |
| 20260831054115 | 59 | 266 | 2.0 | 8.0 | 0.00 | 0.18 | 0.18 | 95 | 1019.8 |
| 20260831053547 | 59 | 238 | 1.0 | 8.0 | 0.00 | 0.18 | 0.18 | 96 | 1019.6 |
| 20260831053344 | 59 | 210 | 1.0 | 8.0 | 0.00 | 0.18 | 0.18 | 96 | 1019.5 |
| 20260831052815 | 59 | 224 | 1.0 | 5.0 | 0.00 | 0.18 | 0.18 | 96 | 1019.5 |
| 20260831052610 | 59 | 281 | 1.0 | 5.0 | 0.00 | 0.18 | 0.18 | 96 | 1019.4 |
| 20260831052038 | 60 | 229 | 1.0 | 10.0 | 0.00 | 0.18 | 0.18 | 96 | 1019.4 |
| 20260831051830 | 60 | 237 | 1.0 | 10.0 | 0.00 | 0.18 | 0.18 | 96 | 1019.5 |
| 20260831051620 | 60 | 238 | 2.0 | 10.0 | 0.00 | 0.18 | 0.18 | 95 | 1019.4 |
| 20260831051415 | 60 | 242 | 2.0 | 10.0 | 0.00 | 0.18 | 0.18 | 95 | 1019.4 |
| 20260831051209 | 60 | 214 | 2.0 | 10.0 | 0.00 | 0.18 | 0.18 | 95 | 1019.4 |
| 20260831051008 | 60 | 226 | 2.0 | 10.0 | 0.00 | 0.18 | 0.18 | 95 | 1019.3 |
| 20260831050800 | 60 | 251 | 1.0 | 10.0 | 0.00 | 0.18 | 0.18 | 95 | 1019.4 |
| 20260831050600 | 60 | 255 | 1.0 | 10.0 | 0.00 | 0.18 | 0.18 | 95 | 1019.4 |
| 20260831050357 | 60 | 264 | 1.0 | 10.0 | 0.00 | 0.18 | 0.18 | 95 | 1019.3 |
| 20260831050148 | 60 | 231 | 1.0 | 10.0 | 0.00 | 0.18 | 0.18 | 95 | 1019.4 |
| 20260831045943 | 60 | 266 | 1.0 | 6.0 | 0.00 | 0.18 | 0.18 | 96 | 1019.3 |
| 20260831045416 | 60 | 237 | 1.0 | 7.0 | 0.00 | 0.18 | 0.18 | 95 | 1019.2 |
| 20260831045215 | 60 | 311 | 1.0 | 7.0 | 0.00 | 0.18 | 0.18 | 95 | 1019.3 |
| 20260831045007 | 60 | 254 | 1.0 | 7.0 | 0.00 | 0.18 | 0.18 | 95 | 1019.3 |
| 20260831044758 | 60 | 239 | 2.0 | 7.0 | 0.00 | 0.18 | 0.18 | 95 | 1019.2 |
| 20260831044552 | 60 | 245 | 2.0 | 10.0 | 0.00 | 0.18 | 0.18 | 95 | 1019.3 |
| 20260831044343 | 60 | 224 | 2.0 | 10.0 | 0.00 | 0.18 | 0.18 | 95 | 1019.2 |
| 20260831044141 | 60 | 202 | 2.0 | 10.0 | 0.00 | 0.18 | 0.18 | 95 | 1019.2 |
| 20260831043938 | 60 | 241 | 2.0 | 10.0 | 0.00 | 0.18 | 0.18 | 95 | 1019.2 |
| 20260831043730 | 60 | 236 | 2.0 | 10.0 | 0.00 | 0.18 | 0.18 | 95 | 1019.3 |
| 20260831043529 | 61 | 212 | 2.0 | 10.0 | 0.00 | 0.18 | 0.18 | 94 | 1019.2 |
| 20260831043329 | 61 | 229 | 3.0 | 10.0 | 0.00 | 0.18 | 0.18 | 94 | 1019.2 |
| 20260831042803 | 61 | 250 | 3.0 | 10.0 | 0.00 | 0.18 | 0.18 | 95 | 1019.2 |
| 20260831042554 | 61 | 224 | 2.0 | 9.0 | 0.00 | 0.18 | 0.18 | 95 | 1019.1 |
| 20260831042347 | 61 | 199 | 2.0 | 9.0 | 0.00 | 0.18 | 0.18 | 94 | 1019.2 |
| 20260831042138 | 61 | 222 | 2.0 | 10.0 | 0.00 | 0.18 | 0.18 | 94 | 1019.2 |
| 20260831041938 | 61 | 285 | 2.0 | 10.0 | 0.00 | 0.18 | 0.18 | 94 | 1019.2 |
| 20260831041735 | 61 | 230 | 2.0 | 10.0 | 0.00 | 0.18 | 0.18 | 94 | 1019.2 |
| 20260831040904 | 61 | 217 | 3.0 | 10.0 | 0.00 | 0.18 | 0.18 | 94 | 1019.2 |
| 20260831040337 | 61 | 222 | 3.0 | 10.0 | 0.00 | 0.18 | 0.18 | 94 | 1019.2 |
| 20260831040136 | 61 | 216 | 3.0 | 8.0 | 0.00 | 0.18 | 0.18 | 94 | 1019.1 |
| 20260831035934 | 61 | 264 | 3.0 | 8.0 | 0.00 | 0.18 | 0.18 | 94 | 1019.2 |
| 20260831035726 | 61 | 242 | 3.0 | 8.0 | 0.00 | 0.18 | 0.18 | 94 | 1019.3 |
| 20260831035521 | 61 | 264 | 3.0 | 8.0 | 0.00 | 0.18 | 0.18 | 93 | 1019.1 |
| 20260831035321 | 61 | 249 | 3.0 | 8.0 | 0.00 | 0.18 | 0.18 | 93 | 1019.1 |
| 20260831035111 | 61 | 240 | 3.0 | 8.0 | 0.00 | 0.18 | 0.18 | 93 | 1019.0 |
| 20260831034905 | 61 | 263 | 3.0 | 8.0 | 0.00 | 0.18 | 0.18 | 93 | 1019.1 |
| 20260831034703 | 61 | 243 | 2.0 | 7.0 | 0.00 | 0.18 | 0.18 | 93 | 1019.1 |
| 20260831034135 | 61 | 221 | 2.0 | 9.0 | 0.00 | 0.18 | 0.18 | 93 | 1019.2 |
| 20260831033612 | 61 | 236 | 3.0 | 9.0 | 0.00 | 0.18 | 0.18 | 92 | 1019.2 |
| 20260831033401 | 61 | 229 | 4.0 | 9.0 | 0.00 | 0.18 | 0.18 | 92 | 1019.1 |
| 20260831033154 | 61 | 226 | 3.0 | 9.0 | 0.00 | 0.18 | 0.18 | 92 | 1019.1 |
| 20260831032950 | 61 | 247 | 3.0 | 9.0 | 0.00 | 0.18 | 0.18 | 92 | 1019.1 |
| 20260831032749 | 61 | 236 | 2.0 | 9.0 | 0.00 | 0.18 | 0.18 | 92 | 1019.1 |
| 20260831032540 | 61 | 215 | 3.0 | 9.0 | 0.00 | 0.18 | 0.18 | 92 | 1019.1 |
| 20260831032017 | 61 | 240 | 3.0 | 7.0 | 0.00 | 0.18 | 0.18 | 92 | 1019.0 |
| 20260831031817 | 61 | 241 | 3.0 | 7.0 | 0.00 | 0.18 | 0.18 | 92 | 1019.0 |
| 20260831031613 | 61 | 244 | 2.0 | 7.0 | 0.00 | 0.18 | 0.18 | 92 | 1019.1 |
| 20260831031405 | 61 | 248 | 3.0 | 9.0 | 0.00 | 0.18 | 0.18 | 92 | 1019.0 |
| 20260831030840 | 61 | 236 | 3.0 | 9.0 | 0.00 | 0.18 | 0.18 | 92 | 1019.1 |
| 20260831030629 | 61 | 236 | 3.0 | 9.0 | 0.00 | 0.18 | 0.18 | 91 | 1019.0 |
| 20260831030428 | 61 | 232 | 4.0 | 11.0 | 0.00 | 0.18 | 0.18 | 91 | 1019.1 |
| 20260831030225 | 61 | 245 | 3.0 | 11.0 | 0.00 | 0.18 | 0.18 | 92 | 1019.0 |
| 20260831030019 | 61 | 231 | 3.0 | 11.0 | 0.00 | 0.18 | 0.18 | 92 | 1019.1 |
| 20260831025817 | 61 | 228 | 4.0 | 11.0 | 0.00 | 0.18 | 0.18 | 92 | 1019.0 |
| 20260831025616 | 61 | 240 | 4.0 | 11.0 | 0.00 | 0.18 | 0.18 | 92 | 1019.0 |
| 20260831025410 | 61 | 238 | 4.0 | 11.0 | 0.00 | 0.18 | 0.18 | 91 | 1018.9 |
| 20260831025207 | 61 | 263 | 5.0 | 11.0 | 0.00 | 0.18 | 0.18 | 91 | 1018.9 |
| 20260831025006 | 61 | 241 | 5.0 | 11.0 | 0.00 | 0.18 | 0.18 | 91 | 1018.9 |
| 20260831024804 | 61 | 240 | 5.0 | 11.0 | 0.00 | 0.18 | 0.18 | 91 | 1018.9 |
| 20260831024236 | 61 | 215 | 4.0 | 11.0 | 0.00 | 0.18 | 0.18 | 91 | 1018.9 |
| 20260831024029 | 61 | 224 | 4.0 | 11.0 | 0.00 | 0.18 | 0.18 | 91 | 1018.9 |
| 20260831023824 | 61 | 227 | 3.0 | 11.0 | 0.00 | 0.18 | 0.18 | 91 | 1019.0 |
| 20260831023258 | 61 | 270 | 2.0 | 9.0 | 0.00 | 0.18 | 0.18 | 91 | 1019.0 |
| 20260831023049 | 61 | 223 | 2.0 | 9.0 | 0.00 | 0.18 | 0.18 | 91 | 1018.9 |
| 20260831022848 | 61 | 236 | 2.0 | 9.0 | 0.00 | 0.18 | 0.18 | 90 | 1019.0 |
| 20260831022647 | 61 | 218 | 2.0 | 9.0 | 0.00 | 0.18 | 0.18 | 90 | 1019.0 |
| 20260831022448 | 61 | 248 | 2.0 | 9.0 | 0.00 | 0.18 | 0.18 | 90 | 1018.9 |
| 20260831022240 | 61 | 235 | 2.0 | 9.0 | 0.00 | 0.18 | 0.18 | 90 | 1018.9 |
| 20260831022031 | 61 | 143 | 2.0 | 9.0 | 0.00 | 0.18 | 0.18 | 90 | 1019.0 |
| 20260831021831 | 61 | 243 | 2.0 | 9.0 | 0.00 | 0.18 | 0.18 | 91 | 1018.9 |
| 20260831021626 | 61 | 260 | 2.0 | 9.0 | 0.00 | 0.18 | 0.18 | 91 | 1019.0 |
| 20260831021421 | 62 | 217 | 1.0 | 5.0 | 0.00 | 0.18 | 0.18 | 91 | 1018.9 |
| 20260831020859 | 62 | 232 | 1.0 | 7.0 | 0.00 | 0.18 | 0.18 | 91 | 1018.8 |
| 20260831020656 | 62 | 270 | 1.0 | 7.0 | 0.00 | 0.18 | 0.18 | 91 | 1018.9 |
| 20260831020450 | 62 | 255 | 1.0 | 7.0 | 0.00 | 0.18 | 0.18 | 91 | 1018.9 |
| 20260831020239 | 62 | 245 | 2.0 | 7.0 | 0.00 | 0.18 | 0.18 | 91 | 1018.9 |
| 20260831020039 | 62 | 262 | 2.0 | 7.0 | 0.00 | 0.18 | 0.18 | 91 | 1018.9 |
| 20260831015833 | 62 | 230 | 2.0 | 7.0 | 0.00 | 0.18 | 0.18 | 91 | 1018.9 |
| 20260831015631 | 62 | 251 | 2.0 | 7.0 | 0.00 | 0.18 | 0.18 | 91 | 1018.9 |
| 20260831015425 | 62 | 224 | 2.0 | 7.0 | 0.00 | 0.18 | 0.18 | 91 | 1018.9 |
| 20260831015218 | 62 | 274 | 2.0 | 7.0 | 0.00 | 0.18 | 0.18 | 91 | 1018.9 |
| 20260831015013 | 62 | 286 | 2.0 | 7.0 | 0.00 | 0.18 | 0.18 | 91 | 1018.9 |
| 20260831014814 | 62 | 261 | 2.0 | 6.0 | 0.00 | 0.18 | 0.18 | 91 | 1018.9 |
| 20260831014610 | 62 | 219 | 2.0 | 6.0 | 0.00 | 0.18 | 0.18 | 91 | 1018.9 |
| 20260831014404 | 62 | 224 | 1.0 | 6.0 | 0.00 | 0.18 | 0.18 | 91 | 1018.9 |
| 20260831014154 | 62 | 234 | 1.0 | 6.0 | 0.00 | 0.18 | 0.18 | 91 | 1018.9 |
| 20260831013953 | 62 | 245 | 1.0 | 6.0 | 0.00 | 0.18 | 0.18 | 91 | 1019.0 |
| 20260831013435 | 61 | 26 | 1.0 | 6.0 | 0.00 | 0.18 | 0.18 | 91 | 1019.0 |
| 20260831013233 | 61 | 220 | 1.0 | 6.0 | 0.00 | 0.18 | 0.18 | 91 | 1019.0 |
| 20260831013025 | 61 | 221 | 1.0 | 6.0 | 0.00 | 0.18 | 0.18 | 91 | 1019.1 |
| 20260831012816 | 61 | 254 | 1.0 | 6.0 | 0.00 | 0.18 | 0.18 | 91 | 1019.0 |
| 20260831012616 | 61 | 221 | 0.0 | 6.0 | 0.00 | 0.18 | 0.18 | 91 | 1019.0 |
| 20260831012410 | 61 | 276 | 0.0 | 5.0 | 0.00 | 0.18 | 0.18 | 91 | 1019.0 |
| 20260831012205 | 61 | 268 | 0.0 | 5.0 | 0.00 | 0.18 | 0.18 | 91 | 1019.0 |
| 20260831011634 | 61 | 255 | 0.0 | 4.0 | 0.00 | 0.18 | 0.18 | 91 | 1019.0 |
| 20260831011424 | 61 | 217 | 0.0 | 4.0 | 0.00 | 0.18 | 0.18 | 91 | 1019.1 |
| 20260831011218 | 61 | 225 | 0.0 | 4.0 | 0.00 | 0.18 | 0.18 | 91 | 1019.2 |
| 20260831011016 | 61 | 221 | 0.0 | 4.0 | 0.00 | 0.18 | 0.18 | 91 | 1019.2 |
| 20260831010807 | 61 | 222 | 0.0 | 4.0 | 0.00 | 0.18 | 0.18 | 91 | 1019.1 |
| 20260831010241 | 61 | 157 | 0.0 | 3.0 | 0.00 | 0.18 | 0.18 | 91 | 1019.0 |
| 20260831010034 | 61 | 153 | 0.0 | 3.0 | 0.00 | 0.18 | 0.18 | 91 | 1019.2 |
| 20260831005826 | 61 | 250 | 0.0 | 3.0 | 0.00 | 0.18 | 0.18 | 91 | 1019.2 |
| 20260831005620 | 61 | 231 | 0.0 | 3.0 | 0.00 | 0.18 | 0.18 | 91 | 1019.2 |
| 20260831005051 | 60 | 235 | 0.0 | 2.0 | 0.00 | 0.18 | 0.18 | 92 | 1019.2 |
| 20260831004852 | 60 | 226 | 0.0 | 2.0 | 0.00 | 0.18 | 0.18 | 92 | 1019.2 |
| 20260831004651 | 61 | 235 | 0.0 | 2.0 | 0.00 | 0.18 | 0.18 | 92 | 1019.3 |
| 20260831004450 | 60 | 252 | 0.0 | 3.0 | 0.00 | 0.18 | 0.18 | 92 | 1019.3 |
| 20260831004251 | 60 | 243 | 0.0 | 3.0 | 0.00 | 0.18 | 0.18 | 92 | 1019.3 |
| 20260831004042 | 60 | 235 | 0.0 | 3.0 | 0.00 | 0.18 | 0.18 | 92 | 1019.3 |
| 20260831003837 | 60 | 219 | 0.0 | 3.0 | 0.00 | 0.18 | 0.18 | 92 | 1019.2 |
| 20260831003627 | 60 | 221 | 0.0 | 3.0 | 0.00 | 0.18 | 0.18 | 92 | 1019.1 |
| 20260831003424 | 60 | 250 | 0.0 | 5.0 | 0.00 | 0.18 | 0.18 | 92 | 1019.2 |
| 20260831003219 | 60 | 245 | 0.0 | 5.0 | 0.00 | 0.18 | 0.18 | 91 | 1019.2 |
| 20260831003010 | 60 | 241 | 0.0 | 5.0 | 0.00 | 0.18 | 0.18 | 91 | 1019.2 |
| 20260831002808 | 60 | 226 | 0.0 | 5.0 | 0.00 | 0.18 | 0.18 | 91 | 1019.2 |
| 20260831002602 | 60 | 249 | 0.0 | 5.0 | 0.00 | 0.18 | 0.18 | 91 | 1019.2 |
| 20260831002400 | 60 | 230 | 1.0 | 5.0 | 0.00 | 0.18 | 0.18 | 91 | 1019.2 |
| 20260831002156 | 60 | 227 | 1.0 | 5.0 | 0.00 | 0.18 | 0.18 | 90 | 1019.2 |
| 20260831001952 | 60 | 236 | 2.0 | 5.0 | 0.00 | 0.18 | 0.18 | 90 | 1019.2 |
| 20260831001748 | 61 | 250 | 2.0 | 5.0 | 0.00 | 0.18 | 0.18 | 90 | 1019.1 |
| 20260831001543 | 61 | 262 | 2.0 | 10.0 | 0.00 | 0.18 | 0.18 | 90 | 1019.1 |
| 20260831001334 | 60 | 199 | 2.0 | 10.0 | 0.00 | 0.18 | 0.18 | 90 | 1019.0 |
| 20260831001134 | 60 | 221 | 2.0 | 10.0 | 0.00 | 0.18 | 0.18 | 90 | 1019.2 |
| 20260831000935 | 60 | 240 | 2.0 | 10.0 | 0.00 | 0.18 | 0.18 | 90 | 1019.1 |
| 20260831000726 | 60 | 264 | 2.0 | 10.0 | 0.00 | 0.18 | 0.18 | 89 | 1019.2 |
| 20260831000520 | 61 | 230 | 2.0 | 10.0 | 0.00 | 0.18 | 0.18 | 89 | 1019.2 |
| 20260831000315 | 60 | 299 | 2.0 | 10.0 | 0.00 | 0.18 | 0.18 | 89 | 1019.2 |
| 20260831000116 | 61 | 263 | 2.0 | 10.0 | 0.00 | 0.18 | 0.18 | 89 | 1019.2 |
| 20260830235910 | 60 | 217 | 2.0 | 10.0 | 0.00 | 0.18 | 0.18 | 89 | 1019.2 |
| 20260830235707 | 60 | 257 | 2.0 | 10.0 | 0.00 | 0.18 | 0.18 | 89 | 1019.2 |
| 20260830235504 | 60 | 248 | 2.0 | 9.0 | 0.00 | 0.18 | 0.18 | 89 | 1019.0 |
| 20260830235306 | 60 | 211 | 2.0 | 9.0 | 0.00 | 0.18 | 0.18 | 89 | 1019.1 |
| 20260830235104 | 60 | 210 | 3.0 | 9.0 | 0.00 | 0.18 | 0.18 | 89 | 1019.1 |
| 20260830234856 | 60 | 226 | 4.0 | 9.0 | 0.00 | 0.18 | 0.18 | 89 | 1019.0 |
| 20260830234646 | 60 | 228 | 4.0 | 9.0 | 0.00 | 0.18 | 0.18 | 90 | 1019.0 |
| 20260830234437 | 60 | 227 | 3.0 | 9.0 | 0.00 | 0.18 | 0.18 | 90 | 1019.0 |
| 20260830234236 | 60 | 224 | 3.0 | 9.0 | 0.00 | 0.18 | 0.18 | 90 | 1018.9 |
| 20260830234033 | 60 | 245 | 3.0 | 9.0 | 0.00 | 0.18 | 0.18 | 90 | 1018.9 |
| 20260830233829 | 60 | 229 | 2.0 | 9.0 | 0.00 | 0.18 | 0.18 | 90 | 1018.7 |
| 20260830233620 | 60 | 264 | 3.0 | 9.0 | 0.00 | 0.18 | 0.18 | 90 | 1018.7 |
| 20260830233059 | 60 | 256 | 4.0 | 20.0 | 0.03 | 0.18 | 0.18 | 89 | 1018.7 |
| 20260830232203 | 61 | 217 | 7.0 | 20.0 | 0.07 | 0.18 | 0.18 | 88 | 1018.5 |
| 20260830231957 | 61 | 224 | 7.0 | 20.0 | 0.12 | 0.18 | 0.18 | 87 | 1018.4 |
| 20260830231749 | 60 | 247 | 7.0 | 20.0 | 0.28 | 0.18 | 0.18 | 87 | 1018.5 |
| 20260830231539 | 60 | 219 | 6.0 | 20.0 | 0.51 | 0.16 | 0.16 | 88 | 1018.6 |
| 20260830231336 | 61 | 258 | 5.0 | 11.0 | 0.59 | 0.14 | 0.14 | 88 | 1018.9 |
| 20260830230455 | 61 | 250 | 3.0 | 11.0 | 0.15 | 0.07 | 0.07 | 84 | 1018.7 |
| 20260830230246 | 61 | 273 | 3.0 | 11.0 | 0.54 | 0.07 | 0.07 | 86 | 1018.7 |
| 20260830230047 | 61 | 226 | 2.0 | 7.0 | 0.92 | 0.06 | 0.06 | 87 | 1018.7 |
| 20260830225846 | 61 | 233 | 2.0 | 7.0 | 0.00 | 0.04 | 0.04 | 86 | 1018.6 |
| 20260830225646 | 61 | 253 | 2.0 | 7.0 | 0.00 | 0.04 | 0.04 | 85 | 1018.5 |
| 20260830225447 | 61 | 221 | 1.0 | 7.0 | 0.00 | 0.04 | 0.04 | 85 | 1018.4 |
| 20260830224923 | 61 | 230 | 1.0 | 4.0 | 0.00 | 0.04 | 0.04 | 87 | 1018.2 |
| 20260830224718 | 61 | 238 | 1.0 | 4.0 | 0.03 | 0.04 | 0.04 | 87 | 1018.3 |
| 20260830224507 | 61 | 213 | 1.0 | 21.0 | 0.03 | 0.04 | 0.04 | 87 | 1018.3 |
| 20260830224302 | 61 | 246 | 2.0 | 21.0 | 0.03 | 0.04 | 0.04 | 88 | 1018.4 |
| 20260830224102 | 61 | 223 | 2.0 | 21.0 | 0.04 | 0.04 | 0.04 | 88 | 1018.4 |
| 20260830223901 | 61 | 233 | 4.0 | 21.0 | 0.06 | 0.04 | 0.04 | 88 | 1018.5 |
| 20260830223654 | 61 | 264 | 5.0 | 21.0 | 0.08 | 0.04 | 0.04 | 88 | 1018.6 |
| 20260830223452 | 61 | 214 | 6.0 | 21.0 | 0.14 | 0.04 | 0.04 | 88 | 1018.7 |
| 20260830223249 | 62 | 264 | 6.0 | 21.0 | 0.23 | 0.04 | 0.04 | 88 | 1019.1 |
| 20260830223040 | 62 | 304 | 6.0 | 21.0 | 0.11 | 0.03 | 0.03 | 87 | 1019.3 |
| 20260830222831 | 62 | 248 | 6.0 | 21.0 | 0.16 | 0.03 | 0.03 | 86 | 1019.4 |
| 20260830222627 | 62 | 277 | 5.0 | 21.0 | 0.53 | 0.02 | 0.03 | 86 | 1019.2 |
| 20260830222111 | 64 | 274 | 6.0 | 21.0 | 0.17 | 0.01 | 0.01 | 83 | 1018.9 |
| 20260830221905 | 65 | 278 | 5.0 | 21.0 | 0.00 | 0.00 | 0.00 | 81 | 1018.7 |
| 20260830221657 | 66 | 311 | 5.0 | 21.0 | 0.00 | 0.00 | 0.00 | 80 | 1018.4 |
| 20260830221447 | 67 | 244 | 5.0 | 21.0 | 0.00 | 0.00 | 0.00 | 76 | 1018.2 |
| 20260830221246 | 68 | 252 | 3.0 | 15.0 | 0.00 | 0.00 | 0.00 | 72 | 1018.2 |
| 20260830221038 | 69 | 276 | 2.0 | 9.0 | 0.00 | 0.00 | 0.00 | 69 | 1018.1 |
| 20260830220830 | 69 | 240 | 2.0 | 9.0 | 0.00 | 0.00 | 0.00 | 68 | 1017.6 |
| 20260830220256 | 69 | 245 | 1.0 | 4.0 | 0.00 | 0.00 | 0.00 | 67 | 1017.3 |
| 20260830220052 | 69 | 245 | 1.0 | 4.0 | 0.00 | 0.00 | 0.00 | 67 | 1017.2 |
| 20260830215530 | 69 | 231 | 1.0 | 4.0 | 0.00 | 0.00 | 0.00 | 66 | 1017.1 |
| 20260830215328 | 69 | 235 | 1.0 | 4.0 | 0.00 | 0.00 | 0.00 | 66 | 1017.2 |
| 20260830215122 | 69 | 228 | 0.0 | 4.0 | 0.00 | 0.00 | 0.00 | 66 | 1017.2 |
| 20260830214603 | 69 | 217 | 0.0 | 5.0 | 0.00 | 0.00 | 0.00 | 67 | 1017.1 |
| 20260830214403 | 69 | 228 | 1.0 | 5.0 | 0.00 | 0.00 | 0.00 | 67 | 1017.0 |
| 20260830214158 | 69 | 219 | 1.0 | 5.0 | 0.00 | 0.00 | 0.00 | 67 | 1017.0 |
| 20260830213952 | 69 | 199 | 1.0 | 5.0 | 0.00 | 0.00 | 0.00 | 67 | 1017.1 |
| 20260830213747 | 69 | 237 | 1.0 | 5.0 | 0.00 | 0.00 | 0.00 | 68 | 1017.1 |
| 20260830213540 | 69 | 229 | 1.0 | 5.0 | 0.00 | 0.00 | 0.00 | 68 | 1017.0 |
| 20260830213337 | 69 | 243 | 0.0 | 5.0 | 0.00 | 0.00 | 0.00 | 68 | 1017.1 |
| 20260830213135 | 69 | 244 | 0.0 | 5.0 | 0.00 | 0.00 | 0.00 | 68 | 1017.0 |
| 20260830212607 | 69 | 225 | 0.0 | 3.0 | 0.00 | 0.00 | 0.00 | 68 | 1016.9 |
| 20260830212035 | 69 | 240 | 0.0 | 3.0 | 0.00 | 0.00 | 0.00 | 68 | 1016.9 |
| 20260830211830 | 69 | 237 | 0.0 | 3.0 | 0.00 | 0.00 | 0.00 | 68 | 1017.0 |
| 20260830210940 | 69 | 234 | 0.0 | 3.0 | 0.00 | 0.00 | 0.00 | 67 | 1017.0 |
| 20260830210423 | 69 | 119 | 0.0 | 3.0 | 0.00 | 0.00 | 0.00 | 67 | 1017.0 |
| 20260830210218 | 69 | 226 | 0.0 | 3.0 | 0.00 | 0.00 | 0.00 | 67 | 1017.0 |
| 20260830210010 | 69 | 219 | 0.0 | 3.0 | 0.00 | 0.00 | 0.00 | 67 | 1017.0 |
| 20260830205759 | 69 | 224 | 0.0 | 3.0 | 0.00 | 0.00 | 0.00 | 67 | 1016.9 |
| 20260830205600 | 69 | 134 | 0.0 | 3.0 | 0.00 | 0.00 | 0.00 | 67 | 1016.9 |
| 20260830205351 | 69 | 228 | 0.0 | 1.0 | 0.00 | 0.00 | 0.00 | 67 | 1016.9 |
| 20260830204821 | 69 | 56 | 0.0 | 1.0 | 0.00 | 0.00 | 0.00 | 67 | 1016.9 |
| 20260830204619 | 69 | 153 | 0.0 | 1.0 | 0.00 | 0.00 | 0.00 | 67 | 1016.9 |
| 20260830204412 | 69 | 207 | 0.0 | 0.0 | 0.00 | 0.00 | 0.00 | 67 | 1017.0 |
| 20260830204208 | 69 | 115 | 0.0 | 4.0 | 0.00 | 0.00 | 0.00 | 66 | 1017.0 |
| 20260830204005 | 70 | 193 | 0.0 | 4.0 | 0.00 | 0.00 | 0.00 | 66 | 1017.0 |
| 20260830203757 | 70 | 222 | 0.0 | 4.0 | 0.00 | 0.00 | 0.00 | 66 | 1017.0 |
| 20260830203234 | 70 | 203 | 0.0 | 2.0 | 0.00 | 0.00 | 0.00 | 66 | 1017.1 |
| 20260830203031 | 70 | 224 | 0.0 | 2.0 | 0.00 | 0.00 | 0.00 | 66 | 1017.0 |
| 20260830202826 | 70 | 165 | 0.0 | 1.0 | 0.00 | 0.00 | 0.00 | 66 | 1017.1 |
| 20260830202259 | 70 | 205 | 0.0 | 3.0 | 0.00 | 0.00 | 0.00 | 65 | 1017.0 |
| 20260830202059 | 70 | 228 | 0.0 | 3.0 | 0.00 | 0.00 | 0.00 | 65 | 1017.2 |
| 20260830201524 | 70 | 247 | 0.0 | 3.0 | 0.00 | 0.00 | 0.00 | 65 | 1017.0 |
| 20260830200956 | 70 | 288 | 0.0 | 3.0 | 0.00 | 0.00 | 0.00 | 65 | 1017.0 |
| 20260830200757 | 70 | 121 | 0.0 | 3.0 | 0.00 | 0.00 | 0.00 | 65 | 1017.0 |
| 20260830200550 | 70 | 234 | 0.0 | 3.0 | 0.00 | 0.00 | 0.00 | 64 | 1017.0 |
| 20260830200021 | 70 | 236 | 0.0 | 3.0 | 0.00 | 0.00 | 0.00 | 64 | 1017.1 |
| 20260830195816 | 70 | 233 | 0.0 | 5.0 | 0.00 | 0.00 | 0.00 | 64 | 1017.0 |
| 20260830195611 | 70 | 254 | 0.0 | 5.0 | 0.00 | 0.00 | 0.00 | 64 | 1017.1 |
| 20260830195412 | 70 | 257 | 0.0 | 5.0 | 0.00 | 0.00 | 0.00 | 64 | 1017.1 |
| 20260830195202 | 70 | 183 | 0.0 | 5.0 | 0.00 | 0.00 | 0.00 | 64 | 1017.2 |
| 20260830194630 | 71 | 240 | 0.0 | 5.0 | 0.00 | 0.00 | 0.00 | 63 | 1017.2 |
| 20260830194424 | 71 | 164 | 0.0 | 5.0 | 0.00 | 0.00 | 0.00 | 63 | 1017.2 |
| 20260830194223 | 71 | 238 | 0.0 | 5.0 | 0.00 | 0.00 | 0.00 | 63 | 1017.2 |
| 20260830194016 | 71 | 242 | 0.0 | 5.0 | 0.00 | 0.00 | 0.00 | 63 | 1017.2 |
| 20260830193812 | 71 | 238 | 0.0 | 3.0 | 0.00 | 0.00 | 0.00 | 63 | 1017.1 |
| 20260830193603 | 71 | 238 | 0.0 | 3.0 | 0.00 | 0.00 | 0.00 | 63 | 1017.2 |
| 20260830193355 | 71 | 200 | 0.0 | 3.0 | 0.00 | 0.00 | 0.00 | 63 | 1017.1 |
| 20260830193151 | 71 | 233 | 0.0 | 3.0 | 0.00 | 0.00 | 0.00 | 63 | 1017.2 |
| 20260830192946 | 71 | 222 | 0.0 | 3.0 | 0.00 | 0.00 | 0.00 | 63 | 1017.2 |
| 20260830192737 | 71 | 211 | 0.0 | 3.0 | 0.00 | 0.00 | 0.00 | 64 | 1017.2 |
| 20260830192535 | 71 | 245 | 0.0 | 2.0 | 0.00 | 0.00 | 0.00 | 64 | 1017.2 |
| 20260830192325 | 70 | 207 | 0.0 | 2.0 | 0.00 | 0.00 | 0.00 | 64 | 1017.1 |
| 20260830192122 | 70 | 233 | 0.0 | 2.0 | 0.00 | 0.00 | 0.00 | 64 | 1017.2 |
| 20260830191919 | 70 | 226 | 0.0 | 2.0 | 0.00 | 0.00 | 0.00 | 64 | 1017.2 |
| 20260830191713 | 70 | 210 | 0.0 | 1.0 | 0.00 | 0.00 | 0.00 | 64 | 1017.1 |
| 20260830191503 | 70 | 225 | 0.0 | 2.0 | 0.00 | 0.00 | 0.00 | 63 | 1017.1 |
| 20260830190930 | 70 | 233 | 0.0 | 2.0 | 0.00 | 0.00 | 0.00 | 63 | 1017.0 |
| 20260830190723 | 70 | 239 | 0.0 | 2.0 | 0.00 | 0.00 | 0.00 | 63 | 1017.0 |
| 20260830190516 | 70 | 213 | 0.0 | 2.0 | 0.00 | 0.00 | 0.00 | 63 | 1017.1 |
| 20260830190308 | 70 | 231 | 0.0 | 2.0 | 0.00 | 0.00 | 0.00 | 63 | 1017.0 |
| 20260830190058 | 70 | 219 | 0.0 | 2.0 | 0.00 | 0.00 | 0.00 | 63 | 1016.9 |
| 20260830185848 | 70 | 243 | 0.0 | 2.0 | 0.00 | 0.00 | 0.00 | 62 | 1017.0 |
| 20260830185647 | 70 | 249 | 0.0 | 2.0 | 0.00 | 0.00 | 0.00 | 62 | 1016.9 |
| 20260830185446 | 70 | 235 | 0.0 | 2.0 | 0.00 | 0.00 | 0.00 | 62 | 1017.0 |
| 20260830185236 | 70 | 246 | 0.0 | 2.0 | 0.00 | 0.00 | 0.00 | 62 | 1017.0 |
| 20260830185029 | 70 | 216 | 0.0 | 2.0 | 0.00 | 0.00 | 0.00 | 62 | 1016.9 |
| 20260830184821 | 71 | 238 | 0.0 | 2.0 | 0.00 | 0.00 | 0.00 | 62 | 1016.9 |
| 20260830184616 | 71 | 207 | 0.0 | 2.0 | 0.00 | 0.00 | 0.00 | 62 | 1017.0 |
| 20260830184408 | 71 | 219 | 0.0 | 2.0 | 0.00 | 0.00 | 0.00 | 62 | 1016.9 |
| 20260830184200 | 71 | 219 | 0.0 | 2.0 | 0.00 | 0.00 | 0.00 | 63 | 1016.9 |
| 20260830183949 | 71 | 204 | 0.0 | 1.0 | 0.00 | 0.00 | 0.00 | 63 | 1016.9 |
| 20260830183736 | 70 | 233 | 0.0 | 1.0 | 0.00 | 0.00 | 0.00 | 63 | 1017.0 |
| 20260830183528 | 70 | 231 | 0.0 | 0.0 | 0.00 | 0.00 | 0.00 | 63 | 1016.9 |
| 20260830183325 | 70 | 234 | 0.0 | 0.0 | 0.00 | 0.00 | 0.00 | 63 | 1016.9 |
| 20260830183121 | 70 | 227 | 0.0 | 0.0 | 0.00 | 0.00 | 0.00 | 62 | 1017.0 |
| 20260830182921 | 70 | 227 | 0.0 | 0.0 | 0.00 | 0.00 | 0.00 | 63 | 1016.9 |
| 20260830182715 | 71 | 230 | 0.0 | 2.0 | 0.00 | 0.00 | 0.00 | 63 | 1017.0 |
| 20260830182514 | 70 | 237 | 0.0 | 1.0 | 0.00 | 0.00 | 0.00 | 63 | 1016.9 |
| 20260830181940 | 71 | 225 | 0.0 | 1.0 | 0.00 | 0.00 | 0.00 | 63 | 1016.9 |
| 20260830181733 | 71 | 225 | 0.0 | 1.0 | 0.00 | 0.00 | 0.00 | 62 | 1017.0 |
| 20260830181528 | 71 | 238 | 0.0 | 0.0 | 0.00 | 0.00 | 0.00 | 62 | 1017.0 |
| 20260830181329 | 71 | 239 | 0.0 | 0.0 | 0.00 | 0.00 | 0.00 | 63 | 1016.9 |
| 20260830181120 | 71 | 227 | 0.0 | 1.0 | 0.00 | 0.00 | 0.00 | 64 | 1017.0 |
| 20260830180557 | 71 | 225 | 0.0 | 1.0 | 0.00 | 0.00 | 0.00 | 63 | 1017.0 |
| 20260830180348 | 71 | 224 | 0.0 | 1.0 | 0.00 | 0.00 | 0.00 | 62 | 1017.0 |
| 20260830180140 | 71 | 226 | 0.0 | 1.0 | 0.00 | 0.00 | 0.00 | 62 | 1017.0 |
| 20260830175939 | 71 | 231 | 0.0 | 0.0 | 0.00 | 0.00 | 0.00 | 63 | 1017.1 |
| 20260830175736 | 71 | 224 | 0.0 | 0.0 | 0.00 | 0.00 | 0.00 | 62 | 1017.2 |
| 20260830175531 | 71 | 224 | 0.0 | 0.0 | 0.00 | 0.00 | 0.00 | 62 | 1017.1 |
| 20260830175331 | 71 | 224 | 0.0 | 0.0 | 0.00 | 0.00 | 0.00 | 63 | 1017.1 |
| 20260830175124 | 71 | 236 | 0.0 | 0.0 | 0.00 | 0.00 | 0.00 | 63 | 1017.2 |
| 20260830174922 | 71 | 236 | 0.0 | 0.0 | 0.00 | 0.00 | 0.00 | 63 | 1017.1 |
| 20260830174718 | 71 | 233 | 0.0 | 0.0 | 0.00 | 0.00 | 0.00 | 63 | 1017.1 |
| 20260830174511 | 71 | 233 | 0.0 | 0.0 | 0.00 | 0.00 | 0.00 | 62 | 1017.2 |
| 20260830174311 | 71 | 234 | 0.0 | 0.0 | 0.00 | 0.00 | 0.00 | 62 | 1017.0 |
| 20260830174111 | 71 | 236 | 0.0 | 0.0 | 0.00 | 0.00 | 0.00 | 62 | 1017.0 |
| 20260830173903 | 71 | 226 | 0.0 | 0.0 | 0.00 | 0.00 | 0.00 | 62 | 1017.1 |
| 20260830173654 | 71 | 227 | 0.0 | 0.0 | 0.00 | 0.00 | 0.00 | 62 | 1017.1 |
| 20260830173453 | 71 | 226 | 0.0 | 0.0 | 0.00 | 0.00 | 0.00 | 62 | 1017.1 |
| 20260830173246 | 71 | 223 | 0.0 | 1.0 | 0.00 | 0.00 | 0.00 | 62 | 1017.1 |
| 20260830173042 | 71 | 224 | 0.0 | 1.0 | 0.00 | 0.00 | 0.00 | 62 | 1017.1 |
| 20260830172835 | 71 | 231 | 0.0 | 1.0 | 0.00 | 0.00 | 0.00 | 62 | 1017.2 |
| 20260830172632 | 71 | 229 | 0.0 | 1.0 | 0.00 | 0.00 | 0.00 | 62 | 1017.2 |
| 20260830172431 | 71 | 229 | 0.0 | 0.0 | 0.00 | 0.00 | 0.00 | 62 | 1017.3 |
| 20260830172230 | 71 | 229 | 0.0 | 0.0 | 0.00 | 0.00 | 0.00 | 62 | 1017.2 |
| 20260830172028 | 71 | 228 | 0.0 | 0.0 | 0.00 | 0.00 | 0.00 | 62 | 1017.3 |
| 20260830171824 | 71 | 233 | 0.0 | 0.0 | 0.00 | 0.00 | 0.00 | 63 | 1017.2 |
| 20260830171618 | 71 | 234 | 0.0 | 2.0 | 0.00 | 0.00 | 0.00 | 63 | 1017.3 |
| 20260830171413 | 71 | 229 | 0.0 | 2.0 | 0.00 | 0.00 | 0.00 | 64 | 1017.3 |
| 20260830171210 | 71 | 229 | 0.0 | 2.0 | 0.00 | 0.00 | 0.00 | 64 | 1017.2 |
| 20260830171008 | 72 | 238 | 0.0 | 2.0 | 0.00 | 0.00 | 0.00 | 64 | 1017.3 |
| 20260830170800 | 72 | 237 | 0.0 | 0.0 | 0.00 | 0.00 | 0.00 | 64 | 1017.1 |
| 20260830170600 | 72 | 235 | 0.0 | 0.0 | 0.00 | 0.00 | 0.00 | 64 | 1017.2 |
| 20260830170037 | 72 | 231 | 0.0 | 0.0 | 0.00 | 0.00 | 0.00 | 64 | 1017.1 |
| 20260830165838 | 72 | 231 | 0.0 | 0.0 | 0.00 | 0.00 | 0.00 | 64 | 1017.1 |
| 20260830165638 | 72 | 230 | 0.0 | 0.0 | 0.00 | 0.00 | 0.00 | 64 | 1017.2 |
| 20260830164753 | 72 | 236 | 0.0 | 0.0 | 0.00 | 0.00 | 0.00 | 65 | 1017.2 |
| 20260830164547 | 73 | 238 | 0.0 | 0.0 | 0.00 | 0.00 | 0.00 | 65 | 1017.4 |
| 20260830164344 | 73 | 238 | 0.0 | 2.0 | 0.00 | 0.00 | 0.00 | 64 | 1017.3 |
| 20260830164140 | 73 | 241 | 0.0 | 2.0 | 0.00 | 0.00 | 0.00 | 62 | 1017.3 |
| 20260830163932 | 73 | 249 | 0.0 | 1.0 | 0.00 | 0.00 | 0.00 | 63 | 1017.3 |
| 20260830163722 | 73 | 238 | 0.0 | 1.0 | 0.00 | 0.00 | 0.00 | 63 | 1017.2 |
| 20260830163514 | 73 | 237 | 0.0 | 1.0 | 0.00 | 0.00 | 0.00 | 62 | 1017.2 |
| 20260830162955 | 73 | 223 | 0.0 | 1.0 | 0.00 | 0.00 | 0.00 | 62 | 1017.2 |
| 20260830162745 | 73 | 242 | 0.0 | 0.0 | 0.00 | 0.00 | 0.00 | 62 | 1017.2 |
| 20260830162542 | 73 | 245 | 0.0 | 1.0 | 0.00 | 0.00 | 0.00 | 63 | 1017.2 |
| 20260830162018 | 73 | 245 | 0.0 | 1.0 | 0.00 | 0.00 | 0.00 | 62 | 1017.3 |
| 20260830161813 | 73 | 246 | 0.0 | 0.0 | 0.00 | 0.00 | 0.00 | 62 | 1017.3 |
| 20260830161610 | 73 | 250 | 0.0 | 3.0 | 0.00 | 0.00 | 0.00 | 62 | 1017.3 |
| 20260830161410 | 73 | 236 | 0.0 | 3.0 | 0.00 | 0.00 | 0.00 | 62 | 1017.2 |
| 20260830161200 | 73 | 239 | 0.0 | 4.0 | 0.00 | 0.00 | 0.00 | 62 | 1017.2 |
| 20260830160957 | 73 | 252 | 0.0 | 4.0 | 0.00 | 0.00 | 0.00 | 62 | 1017.2 |
| 20260830160752 | 74 | 236 | 0.0 | 4.0 | 0.00 | 0.00 | 0.00 | 60 | 1017.2 |
| 20260830160553 | 74 | 243 | 0.0 | 4.0 | 0.00 | 0.00 | 0.00 | 60 | 1017.2 |
| 20260830160343 | 74 | 236 | 0.0 | 4.0 | 0.00 | 0.00 | 0.00 | 60 | 1017.2 |
| 20260830155820 | 74 | 241 | 1.0 | 4.0 | 0.00 | 0.00 | 0.00 | 60 | 1017.2 |
| 20260830155618 | 74 | 240 | 1.0 | 4.0 | 0.00 | 0.00 | 0.00 | 59 | 1017.2 |
| 20260830155102 | 74 | 239 | 0.0 | 4.0 | 0.00 | 0.00 | 0.00 | 59 | 1017.3 |
| 20260830154536 | 75 | 239 | 0.0 | 6.0 | 0.00 | 0.00 | 0.00 | 56 | 1017.3 |
| 20260830154338 | 75 | 256 | 0.0 | 6.0 | 0.00 | 0.00 | 0.00 | 52 | 1017.4 |
| 20260830154133 | 75 | 265 | 1.0 | 6.0 | 0.00 | 0.00 | 0.00 | 53 | 1017.4 |
| 20260830153606 | 75 | 257 | 2.0 | 6.0 | 0.00 | 0.00 | 0.00 | 53 | 1017.3 |
| 20260830153406 | 75 | 232 | 2.0 | 6.0 | 0.00 | 0.00 | 0.00 | 53 | 1017.3 |
| 20260830152842 | 75 | 231 | 1.0 | 6.0 | 0.00 | 0.00 | 0.00 | 53 | 1017.4 |
| 20260830152642 | 75 | 289 | 1.0 | 6.0 | 0.00 | 0.00 | 0.00 | 53 | 1017.3 |
| 20260830152433 | 75 | 243 | 1.0 | 6.0 | 0.00 | 0.00 | 0.00 | 53 | 1017.4 |
| 20260830152227 | 75 | 241 | 1.0 | 6.0 | 0.00 | 0.00 | 0.00 | 53 | 1017.3 |
| 20260830152025 | 76 | 244 | 1.0 | 6.0 | 0.00 | 0.00 | 0.00 | 53 | 1017.3 |
| 20260830151450 | 76 | 258 | 0.0 | 4.0 | 0.00 | 0.00 | 0.00 | 51 | 1017.4 |
| 20260830151250 | 77 | 243 | 0.0 | 4.0 | 0.00 | 0.00 | 0.00 | 50 | 1017.4 |
| 20260830150728 | 76 | 293 | 0.0 | 6.0 | 0.00 | 0.00 | 0.00 | 51 | 1017.4 |
| 20260830150523 | 76 | 275 | 0.0 | 6.0 | 0.00 | 0.00 | 0.00 | 50 | 1017.3 |
| 20260830150323 | 76 | 257 | 1.0 | 6.0 | 0.00 | 0.00 | 0.00 | 54 | 1017.3 |
| 20260830145754 | 75 | 245 | 1.0 | 6.0 | 0.00 | 0.00 | 0.00 | 52 | 1017.4 |
| 20260830145554 | 76 | 238 | 2.0 | 6.0 | 0.00 | 0.00 | 0.00 | 54 | 1017.3 |
| 20260830145345 | 76 | 232 | 2.0 | 6.0 | 0.00 | 0.00 | 0.00 | 54 | 1017.4 |
| 20260830145146 | 76 | 278 | 2.0 | 6.0 | 0.00 | 0.00 | 0.00 | 54 | 1017.4 |
| 20260830144948 | 76 | 240 | 2.0 | 6.0 | 0.00 | 0.00 | 0.00 | 51 | 1017.3 |
| 20260830144745 | 77 | 274 | 1.0 | 5.0 | 0.00 | 0.00 | 0.00 | 53 | 1017.3 |
| 20260830144542 | 77 | 142 | 1.0 | 5.0 | 0.00 | 0.00 | 0.00 | 53 | 1017.4 |
| 20260830144337 | 77 | 230 | 1.0 | 5.0 | 0.00 | 0.00 | 0.00 | 58 | 1017.3 |
| 20260830144130 | 77 | 230 | 1.0 | 4.0 | 0.00 | 0.00 | 0.00 | 57 | 1017.4 |
| 20260830143922 | 76 | 278 | 1.0 | 4.0 | 0.00 | 0.00 | 0.00 | 55 | 1017.5 |
| 20260830142724 | 77 | 233 | 1.0 | 5.0 | 0.00 | 0.00 | 0.00 | 54 | 1017.6 |
| 20260830142519 | 76 | 226 | 1.0 | 5.0 | 0.00 | 0.00 | 0.00 | 56 | 1017.6 |
| 20260830142311 | 76 | 250 | 1.0 | 5.0 | 0.00 | 0.00 | 0.00 | 56 | 1017.6 |
| 20260830142101 | 76 | 266 | 1.0 | 5.0 | 0.00 | 0.00 | 0.00 | 56 | 1017.7 |
| 20260830141538 | 76 | 264 | 1.0 | 8.0 | 0.00 | 0.00 | 0.00 | 55 | 1017.7 |
| 20260830141340 | 76 | 307 | 1.0 | 8.0 | 0.00 | 0.00 | 0.00 | 57 | 1017.8 |
| 20260830141136 | 76 | 236 | 2.0 | 8.0 | 0.00 | 0.00 | 0.00 | 60 | 1017.8 |
| 20260830140937 | 76 | 233 | 2.0 | 8.0 | 0.00 | 0.00 | 0.00 | 60 | 1017.7 |
| 20260830140736 | 76 | 237 | 2.0 | 8.0 | 0.00 | 0.00 | 0.00 | 59 | 1017.8 |
| 20260830140534 | 76 | 231 | 2.0 | 8.0 | 0.00 | 0.00 | 0.00 | 58 | 1017.8 |
| 20260830140011 | 76 | 236 | 2.0 | 8.0 | 0.00 | 0.00 | 0.00 | 56 | 1017.8 |
| 20260830135812 | 76 | 229 | 2.0 | 7.0 | 0.00 | 0.00 | 0.00 | 54 | 1017.8 |
| 20260830135247 | 76 | 234 | 2.0 | 7.0 | 0.00 | 0.00 | 0.00 | 61 | 1017.8 |
| 20260830135047 | 76 | 240 | 1.0 | 7.0 | 0.00 | 0.00 | 0.00 | 59 | 1017.8 |
| 20260830134843 | 76 | 226 | 1.0 | 7.0 | 0.00 | 0.00 | 0.00 | 56 | 1017.9 |
| 20260830134323 | 75 | 248 | 1.0 | 7.0 | 0.00 | 0.00 | 0.00 | 60 | 1017.8 |
| 20260830133758 | 75 | 239 | 2.0 | 8.0 | 0.00 | 0.00 | 0.00 | 57 | 1018.0 |
| 20260830133549 | 75 | 255 | 2.0 | 8.0 | 0.00 | 0.00 | 0.00 | 58 | 1018.0 |
| 20260830133346 | 75 | 229 | 2.0 | 8.0 | 0.00 | 0.00 | 0.00 | 58 | 1018.0 |
| 20260830133138 | 75 | 263 | 2.0 | 8.0 | 0.00 | 0.00 | 0.00 | 60 | 1018.0 |
| 20260830132939 | 75 | 279 | 2.0 | 8.0 | 0.00 | 0.00 | 0.00 | 62 | 1018.0 |
| 20260830132730 | 75 | 203 | 2.0 | 8.0 | 0.00 | 0.00 | 0.00 | 60 | 1018.0 |
| 20260830132525 | 75 | 250 | 2.0 | 8.0 | 0.00 | 0.00 | 0.00 | 62 | 1017.9 |
| 20260830132320 | 75 | 303 | 1.0 | 8.0 | 0.00 | 0.00 | 0.00 | 61 | 1017.9 |
| 20260830132110 | 75 | 242 | 1.0 | 8.0 | 0.00 | 0.00 | 0.00 | 62 | 1017.9 |
| 20260830131904 | 75 | 244 | 0.0 | 5.0 | 0.00 | 0.00 | 0.00 | 63 | 1018.0 |
| 20260830131703 | 75 | 267 | 0.0 | 5.0 | 0.00 | 0.00 | 0.00 | 60 | 1018.0 |
| 20260830131501 | 75 | 243 | 1.0 | 5.0 | 0.00 | 0.00 | 0.00 | 61 | 1018.1 |
| 20260830131257 | 75 | 310 | 1.0 | 9.0 | 0.00 | 0.00 | 0.00 | 62 | 1018.0 |
| 20260830131047 | 74 | 221 | 2.0 | 9.0 | 0.00 | 0.00 | 0.00 | 61 | 1018.1 |
| 20260830130847 | 74 | 287 | 2.0 | 9.0 | 0.00 | 0.00 | 0.00 | 64 | 1018.1 |
| 20260830130639 | 74 | 278 | 2.0 | 9.0 | 0.00 | 0.00 | 0.00 | 63 | 1018.1 |
| 20260830130429 | 74 | 260 | 2.0 | 9.0 | 0.00 | 0.00 | 0.00 | 63 | 1018.2 |
| 20260830130224 | 74 | 231 | 1.0 | 9.0 | 0.00 | 0.00 | 0.00 | 65 | 1018.2 |
| 20260830130020 | 74 | 329 | 1.0 | 9.0 | 0.00 | 0.00 | 0.00 | 66 | 1018.2 |
| 20260830125814 | 74 | 268 | 2.0 | 9.0 | 0.00 | 0.00 | 0.00 | 65 | 1018.3 |
| 20260830125609 | 74 | 254 | 2.0 | 9.0 | 0.00 | 0.00 | 0.00 | 68 | 1018.3 |
| 20260830125404 | 74 | 243 | 2.0 | 9.0 | 0.00 | 0.00 | 0.00 | 65 | 1018.3 |
| 20260830125203 | 74 | 229 | 2.0 | 7.0 | 0.00 | 0.00 | 0.00 | 67 | 1018.3 |
| 20260830124958 | 73 | 234 | 2.0 | 7.0 | 0.00 | 0.00 | 0.00 | 65 | 1018.2 |
| 20260830124753 | 73 | 208 | 2.0 | 7.0 | 0.00 | 0.00 | 0.00 | 66 | 1018.2 |
| 20260830124227 | 73 | 243 | 3.0 | 8.0 | 0.00 | 0.00 | 0.00 | 68 | 1018.3 |
| 20260830123656 | 73 | 233 | 4.0 | 8.0 | 0.00 | 0.00 | 0.00 | 67 | 1018.3 |
| 20260830123448 | 73 | 245 | 3.0 | 9.0 | 0.00 | 0.00 | 0.00 | 66 | 1018.4 |
| 20260830123242 | 74 | 217 | 3.0 | 9.0 | 0.00 | 0.00 | 0.00 | 65 | 1018.3 |
| 20260830123039 | 74 | 256 | 3.0 | 9.0 | 0.00 | 0.00 | 0.00 | 65 | 1018.3 |
| 20260830122829 | 74 | 229 | 3.0 | 9.0 | 0.00 | 0.00 | 0.00 | 64 | 1018.2 |
| 20260830122628 | 74 | 255 | 2.0 | 9.0 | 0.00 | 0.00 | 0.00 | 65 | 1018.2 |
| 20260830122427 | 74 | 243 | 3.0 | 9.0 | 0.00 | 0.00 | 0.00 | 62 | 1018.2 |
| 20260830122221 | 74 | 264 | 3.0 | 9.0 | 0.00 | 0.00 | 0.00 | 65 | 1018.2 |
| 20260830122011 | 74 | 237 | 3.0 | 9.0 | 0.00 | 0.00 | 0.00 | 66 | 1018.2 |
| 20260830121807 | 74 | 228 | 3.0 | 9.0 | 0.00 | 0.00 | 0.00 | 66 | 1018.2 |
| 20260830121241 | 74 | 257 | 2.0 | 9.0 | 0.00 | 0.00 | 0.00 | 64 | 1018.2 |
| 20260830121041 | 74 | 222 | 2.0 | 9.0 | 0.00 | 0.00 | 0.00 | 65 | 1018.2 |
| 20260830120841 | 74 | 277 | 2.0 | 9.0 | 0.00 | 0.00 | 0.00 | 65 | 1018.3 |
| 20260830120642 | 74 | 266 | 2.0 | 9.0 | 0.00 | 0.00 | 0.00 | 65 | 1018.3 |
| 20260830120437 | 74 | 258 | 2.0 | 9.0 | 0.00 | 0.00 | 0.00 | 64 | 1018.2 |
| 20260830120237 | 74 | 233 | 1.0 | 10.0 | 0.00 | 0.00 | 0.00 | 64 | 1018.3 |
| 20260830120038 | 74 | 228 | 1.0 | 10.0 | 0.00 | 0.00 | 0.00 | 63 | 1018.3 |
| 20260830115830 | 74 | 229 | 1.0 | 10.0 | 0.00 | 0.00 | 0.00 | 64 | 1018.3 |
| 20260830115630 | 74 | 241 | 1.0 | 10.0 | 0.00 | 0.00 | 0.00 | 65 | 1018.3 |
| 20260830115108 | 74 | 274 | 1.0 | 10.0 | 0.00 | 0.00 | 0.00 | 66 | 1018.3 |
| 20260830114859 | 74 | 288 | 2.0 | 10.0 | 0.00 | 0.00 | 0.00 | 65 | 1018.4 |
| 20260830114649 | 74 | 226 | 2.0 | 10.0 | 0.00 | 0.00 | 0.00 | 65 | 1018.4 |
| 20260830114122 | 74 | 264 | 1.0 | 6.0 | 0.00 | 0.00 | 0.00 | 65 | 1018.5 |
| 20260830113557 | 74 | 230 | 1.0 | 6.0 | 0.00 | 0.00 | 0.00 | 67 | 1018.4 |
| 20260830113357 | 74 | 236 | 1.0 | 6.0 | 0.00 | 0.00 | 0.00 | 66 | 1018.4 |
| 20260830112838 | 73 | 302 | 2.0 | 6.0 | 0.00 | 0.00 | 0.00 | 66 | 1018.4 |
| 20260830112636 | 73 | 311 | 2.0 | 6.0 | 0.00 | 0.00 | 0.00 | 66 | 1018.5 |
| 20260830112426 | 73 | 271 | 2.0 | 6.0 | 0.00 | 0.00 | 0.00 | 66 | 1018.5 |
| 20260830111901 | 73 | 295 | 1.0 | 8.0 | 0.00 | 0.00 | 0.00 | 67 | 1018.4 |
| 20260830111659 | 73 | 272 | 2.0 | 8.0 | 0.00 | 0.00 | 0.00 | 68 | 1018.4 |
| 20260830111457 | 73 | 241 | 2.0 | 8.0 | 0.00 | 0.00 | 0.00 | 64 | 1018.5 |
| 20260830111248 | 72 | 316 | 2.0 | 8.0 | 0.00 | 0.00 | 0.00 | 66 | 1018.5 |
| 20260830111042 | 72 | 275 | 3.0 | 8.0 | 0.00 | 0.00 | 0.00 | 65 | 1018.6 |
| 20260830110839 | 72 | 154 | 3.0 | 11.0 | 0.00 | 0.00 | 0.00 | 68 | 1018.5 |
| 20260830110629 | 72 | 262 | 3.0 | 11.0 | 0.00 | 0.00 | 0.00 | 67 | 1018.5 |
| 20260830110426 | 72 | 236 | 3.0 | 11.0 | 0.00 | 0.00 | 0.00 | 67 | 1018.6 |
| 20260830110222 | 72 | 231 | 3.0 | 11.0 | 0.00 | 0.00 | 0.00 | 68 | 1018.4 |
| 20260830110019 | 72 | 253 | 3.0 | 11.0 | 0.00 | 0.00 | 0.00 | 68 | 1018.5 |
| 20260830105450 | 72 | 240 | 2.0 | 11.0 | 0.00 | 0.00 | 0.00 | 65 | 1018.6 |
| 20260830105251 | 72 | 256 | 2.0 | 11.0 | 0.00 | 0.00 | 0.00 | 65 | 1018.7 |
| 20260830105048 | 72 | 257 | 2.0 | 11.0 | 0.00 | 0.00 | 0.00 | 64 | 1018.6 |
| 20260830104838 | 72 | 255 | 2.0 | 8.0 | 0.00 | 0.00 | 0.00 | 67 | 1018.6 |
| 20260830104315 | 72 | 227 | 2.0 | 9.0 | 0.00 | 0.00 | 0.00 | 66 | 1018.6 |
| 20260830104116 | 72 | 259 | 2.0 | 9.0 | 0.00 | 0.00 | 0.00 | 66 | 1018.6 |
| 20260830103908 | 72 | 221 | 2.0 | 9.0 | 0.00 | 0.00 | 0.00 | 67 | 1018.6 |
| 20260830103700 | 71 | 278 | 2.0 | 9.0 | 0.00 | 0.00 | 0.00 | 66 | 1018.7 |
| 20260830103500 | 71 | 234 | 2.0 | 9.0 | 0.00 | 0.00 | 0.00 | 65 | 1018.7 |
| 20260830103252 | 71 | 228 | 2.0 | 9.0 | 0.00 | 0.00 | 0.00 | 66 | 1018.7 |
| 20260830103043 | 71 | 234 | 2.0 | 9.0 | 0.00 | 0.00 | 0.00 | 65 | 1018.7 |
| 20260830102843 | 71 | 289 | 1.0 | 9.0 | 0.00 | 0.00 | 0.00 | 67 | 1018.8 |
| 20260830102319 | 72 | 219 | 1.0 | 8.0 | 0.00 | 0.00 | 0.00 | 67 | 1018.8 |
| 20260830102116 | 71 | 207 | 1.0 | 8.0 | 0.00 | 0.00 | 0.00 | 67 | 1018.9 |
| 20260830101911 | 71 | 318 | 1.0 | 8.0 | 0.00 | 0.00 | 0.00 | 66 | 1018.8 |
| 20260830101704 | 71 | 211 | 1.0 | 8.0 | 0.00 | 0.00 | 0.00 | 71 | 1019.0 |
| 20260830101456 | 71 | 233 | 1.0 | 11.0 | 0.00 | 0.00 | 0.00 | 69 | 1018.9 |
| 20260830100927 | 70 | 248 | 2.0 | 11.0 | 0.00 | 0.00 | 0.00 | 67 | 1019.0 |
| 20260830100728 | 70 | 251 | 3.0 | 11.0 | 0.00 | 0.00 | 0.00 | 67 | 1019.0 |
| 20260830100154 | 70 | 250 | 3.0 | 11.0 | 0.00 | 0.00 | 0.00 | 67 | 1019.0 |
| 20260830095945 | 70 | 212 | 2.0 | 11.0 | 0.00 | 0.00 | 0.00 | 65 | 1019.0 |
| 20260830095101 | 70 | 247 | 2.0 | 10.0 | 0.00 | 0.00 | 0.00 | 68 | 1019.2 |
| 20260830094858 | 70 | 241 | 2.0 | 10.0 | 0.00 | 0.00 | 0.00 | 67 | 1019.1 |
| 20260830094657 | 70 | 213 | 1.0 | 10.0 | 0.00 | 0.00 | 0.00 | 67 | 1019.1 |
| 20260830094447 | 70 | 221 | 2.0 | 8.0 | 0.00 | 0.00 | 0.00 | 67 | 1019.1 |
| 20260830094241 | 70 | 290 | 2.0 | 8.0 | 0.00 | 0.00 | 0.00 | 67 | 1019.2 |
| 20260830094032 | 70 | 243 | 2.0 | 8.0 | 0.00 | 0.00 | 0.00 | 67 | 1019.2 |
| 20260830093831 | 70 | 236 | 1.0 | 8.0 | 0.00 | 0.00 | 0.00 | 68 | 1019.2 |
| 20260830093310 | 70 | 226 | 1.0 | 8.0 | 0.00 | 0.00 | 0.00 | 66 | 1019.2 |
| 20260830093105 | 70 | 214 | 1.0 | 8.0 | 0.00 | 0.00 | 0.00 | 67 | 1019.2 |
| 20260830092906 | 70 | 255 | 1.0 | 8.0 | 0.00 | 0.00 | 0.00 | 67 | 1019.2 |
| 20260830092700 | 70 | 259 | 1.0 | 8.0 | 0.00 | 0.00 | 0.00 | 69 | 1019.2 |
| 20260830092134 | 70 | 244 | 1.0 | 6.0 | 0.00 | 0.00 | 0.00 | 69 | 1019.3 |
| 20260830091928 | 69 | 245 | 1.0 | 4.0 | 0.00 | 0.00 | 0.00 | 69 | 1019.3 |
| 20260830091723 | 69 | 250 | 1.0 | 4.0 | 0.00 | 0.00 | 0.00 | 69 | 1019.2 |
| 20260830091516 | 69 | 217 | 1.0 | 4.0 | 0.00 | 0.00 | 0.00 | 70 | 1019.2 |
| 20260830091307 | 69 | 285 | 1.0 | 4.0 | 0.00 | 0.00 | 0.00 | 68 | 1019.2 |
| 20260830091103 | 69 | 229 | 1.0 | 4.0 | 0.00 | 0.00 | 0.00 | 68 | 1019.2 |
| 20260830090856 | 69 | 238 | 1.0 | 5.0 | 0.00 | 0.00 | 0.00 | 67 | 1019.2 |
| 20260830090647 | 69 | 232 | 1.0 | 5.0 | 0.00 | 0.00 | 0.00 | 68 | 1019.2 |
| 20260830090449 | 69 | 222 | 1.0 | 5.0 | 0.00 | 0.00 | 0.00 | 68 | 1019.2 |
| 20260830085929 | 69 | 250 | 1.0 | 6.0 | 0.00 | 0.00 | 0.00 | 68 | 1019.2 |
| 20260830085728 | 69 | 248 | 1.0 | 6.0 | 0.00 | 0.00 | 0.00 | 68 | 1019.2 |
| 20260830085528 | 68 | 264 | 1.0 | 6.0 | 0.00 | 0.00 | 0.00 | 70 | 1019.2 |
| 20260830085320 | 68 | 242 | 1.0 | 6.0 | 0.00 | 0.00 | 0.00 | 68 | 1019.2 |
| 20260830085120 | 68 | 248 | 2.0 | 6.0 | 0.00 | 0.00 | 0.00 | 70 | 1019.2 |
| 20260830084920 | 68 | 248 | 1.0 | 6.0 | 0.00 | 0.00 | 0.00 | 67 | 1019.2 |
| 20260830084720 | 68 | 226 | 1.0 | 6.0 | 0.00 | 0.00 | 0.00 | 65 | 1019.2 |
| 20260830084159 | 68 | 263 | 1.0 | 6.0 | 0.00 | 0.00 | 0.00 | 68 | 1019.2 |
| 20260830083954 | 68 | 236 | 1.0 | 6.0 | 0.00 | 0.00 | 0.00 | 69 | 1019.2 |
| 20260830083749 | 68 | 238 | 2.0 | 6.0 | 0.00 | 0.00 | 0.00 | 66 | 1019.3 |
| 20260830083551 | 68 | 244 | 2.0 | 6.0 | 0.00 | 0.00 | 0.00 | 66 | 1019.3 |
| 20260830083024 | 68 | 245 | 1.0 | 6.0 | 0.00 | 0.00 | 0.00 | 68 | 1019.3 |
| 20260830082818 | 68 | 255 | 1.0 | 5.0 | 0.00 | 0.00 | 0.00 | 67 | 1019.3 |
| 20260830082609 | 68 | 240 | 1.0 | 5.0 | 0.00 | 0.00 | 0.00 | 69 | 1019.3 |
| 20260830082408 | 68 | 231 | 1.0 | 5.0 | 0.00 | 0.00 | 0.00 | 70 | 1019.4 |
| 20260830082159 | 68 | 283 | 1.0 | 5.0 | 0.00 | 0.00 | 0.00 | 67 | 1019.3 |
| 20260830081955 | 68 | 247 | 1.0 | 5.0 | 0.00 | 0.00 | 0.00 | 68 | 1019.4 |
| 20260830081745 | 68 | 223 | 1.0 | 5.0 | 0.00 | 0.00 | 0.00 | 68 | 1019.3 |
| 20260830081544 | 68 | 266 | 1.0 | 5.0 | 0.00 | 0.00 | 0.00 | 67 | 1019.3 |
| 20260830081338 | 68 | 261 | 1.0 | 5.0 | 0.00 | 0.00 | 0.00 | 68 | 1019.2 |
| 20260830081139 | 68 | 224 | 1.0 | 5.0 | 0.00 | 0.00 | 0.00 | 67 | 1019.3 |
| 20260830080931 | 68 | 262 | 0.0 | 5.0 | 0.00 | 0.00 | 0.00 | 68 | 1019.3 |
| 20260830080722 | 68 | 248 | 0.0 | 5.0 | 0.00 | 0.00 | 0.00 | 67 | 1019.3 |
| 20260830080517 | 68 | 246 | 0.0 | 4.0 | 0.00 | 0.00 | 0.00 | 69 | 1019.3 |
| 20260830080312 | 68 | 253 | 0.0 | 4.0 | 0.00 | 0.00 | 0.00 | 68 | 1019.3 |
| 20260830080109 | 68 | 234 | 0.0 | 4.0 | 0.00 | 0.00 | 0.00 | 71 | 1019.3 |
| 20260830075904 | 67 | 222 | 0.0 | 5.0 | 0.00 | 0.00 | 0.00 | 68 | 1019.3 |
| 20260830075655 | 67 | 258 | 1.0 | 5.0 | 0.00 | 0.00 | 0.00 | 69 | 1019.3 |
| 20260830075449 | 67 | 235 | 1.0 | 5.0 | 0.00 | 0.00 | 0.00 | 68 | 1019.2 |
| 20260830075239 | 67 | 242 | 1.0 | 5.0 | 0.00 | 0.00 | 0.00 | 70 | 1019.2 |
| 20260830075031 | 67 | 245 | 1.0 | 5.0 | 0.00 | 0.00 | 0.00 | 70 | 1019.2 |
| 20260830074832 | 67 | 226 | 2.0 | 5.0 | 0.00 | 0.00 | 0.00 | 70 | 1019.2 |
| 20260830074633 | 67 | 241 | 1.0 | 5.0 | 0.00 | 0.00 | 0.00 | 69 | 1019.2 |
| 20260830074104 | 67 | 275 | 2.0 | 5.0 | 0.00 | 0.00 | 0.00 | 70 | 1019.2 |
| 20260830073901 | 67 | 240 | 2.0 | 5.0 | 0.00 | 0.00 | 0.00 | 70 | 1019.2 |
| 20260830073652 | 67 | 243 | 2.0 | 5.0 | 0.00 | 0.00 | 0.00 | 69 | 1019.2 |
| 20260830073446 | 67 | 276 | 1.0 | 5.0 | 0.00 | 0.00 | 0.00 | 69 | 1019.1 |
| 20260830073239 | 67 | 240 | 1.0 | 5.0 | 0.00 | 0.00 | 0.00 | 68 | 1019.1 |
| 20260830073036 | 67 | 229 | 0.0 | 5.0 | 0.00 | 0.00 | 0.00 | 68 | 1019.2 |
| 20260830072837 | 68 | 248 | 0.0 | 4.0 | 0.00 | 0.00 | 0.00 | 67 | 1019.1 |
| 20260830072631 | 68 | 259 | 0.0 | 2.0 | 0.00 | 0.00 | 0.00 | 69 | 1019.2 |
| 20260830072423 | 68 | 233 | 0.0 | 2.0 | 0.00 | 0.00 | 0.00 | 69 | 1019.0 |
| 20260830072216 | 68 | 237 | 0.0 | 1.0 | 0.00 | 0.00 | 0.00 | 69 | 1019.1 |
| 20260830072012 | 68 | 269 | 0.0 | 0.0 | 0.00 | 0.00 | 0.00 | 69 | 1019.0 |
| 20260830071448 | 67 | 261 | 0.0 | 0.0 | 0.00 | 0.00 | 0.00 | 70 | 1018.9 |
| 20260830070921 | 67 | 110 | 0.0 | 2.0 | 0.00 | 0.00 | 0.00 | 70 | 1018.8 |
| 20260830070400 | 67 | 103 | 0.0 | 2.0 | 0.00 | 0.00 | 0.00 | 71 | 1018.9 |
| 20260830070152 | 67 | 108 | 0.0 | 2.0 | 0.00 | 0.00 | 0.00 | 71 | 1018.9 |
| 20260830065942 | 67 | 121 | 0.0 | 1.0 | 0.00 | 0.00 | 0.00 | 71 | 1018.9 |
| 20260830065741 | 67 | 82 | 0.0 | 1.0 | 0.00 | 0.00 | 0.00 | 71 | 1018.8 |
| 20260830065539 | 67 | 255 | 0.0 | 1.0 | 0.00 | 0.00 | 0.00 | 71 | 1018.9 |
| 20260830065339 | 67 | 238 | 0.0 | 0.0 | 0.00 | 0.00 | 0.00 | 68 | 1018.9 |
| 20260830065132 | 67 | 238 | 0.0 | 2.0 | 0.00 | 0.00 | 0.00 | 69 | 1018.8 |
| 20260830064932 | 66 | 243 | 0.0 | 2.0 | 0.00 | 0.00 | 0.00 | 68 | 1018.9 |
| 20260830064732 | 66 | 231 | 0.0 | 1.0 | 0.00 | 0.00 | 0.00 | 68 | 1018.8 |
| 20260830064212 | 66 | 252 | 0.0 | 1.0 | 0.00 | 0.00 | 0.00 | 69 | 1018.6 |